Wind_Speed
41 41 41 41 40 40 40 39 39 39 39 39 38 38 37 37 38 38 38 38 37 36 36 37 38 38 38 38 38 37 37 37 37 37 37 37 37 37 37 37 37 36 36
42 42 42 42 41 41 41 41 41 40 41 41 40 40 40 40 41 41 41 40 39 39 40 40 41 41 41 41 40 40 40 40 39 39 39 38 37 37 37 37 37 37 38
41 42 42 42 42 42 42 42 42 43 43 43 43 43 43 43 43 43 42 42 43 43 43 44 44 44 44 43 43 42 42 42 41 41 40 40 39 38 38 38 38 38 38
40 40 41 41 42 42 43 44 44 45 46 46 47 47 46 46 45 45 46 46 47 47 47 47 47 47 47 46 46 45 45 44 43 43 42 41 41 40 39 39 40 39 39
38 39 40 41 42 43 43 44 45 47 48 49 50 50 50 50 49 49 49 50 50 50 50 49 49 49 49 48 48 47 47 47 46 45 44 44 43 42 42 42 41 41 41
36 37 38 39 41 42 44 45 46 48 49 51 52 53 54 54 54 54 54 53 53 53 52 52 52 52 51 51 50 50 49 48 47 47 47 45 45 44 44 44 43 43 43
34 35 36 38 40 42 44 46 48 50 52 54 55 57 58 58 59 58 58 58 57 56 55 54 54 54 54 53 53 52 51 50 50 49 48 47 46 46 45 46 45 45 45
33 34 36 38 40 43 45 48 50 52 55 57 58 60 61 62 62 62 62 61 60 59 58 57 56 56 55 55 54 54 53 52 52 51 51 49 48 47 47 47 47 47 48
32 34 36 39 41 44 46 49 51 54 56 58 60 62 63 64 65 65 65 64 63 61 61 60 59 57 57 56 55 55 54 54 53 52 52 51 49 49 49 49 49 49 50
32 34 37 39 41 44 46 49 52 55 57 60 62 64 65 67 67 67 67 66 64 63 62 61 59 58 57 57 57 56 55 54 53 53 52 51 50 50 50 50 51 52 54
31 34 36 38 41 44 46 49 52 55 57 59 62 64 65 67 68 68 67 66 64 63 61 59 58 57 56 56 56 55 55 53 52 52 51 51 50 52 52 53 54 56 57
30 33 35 37 40 42 45 48 50 53 55 57 59 61 62 63 64 65 65 64 62 61 59 57 55 54 54 53 53 53 53 52 51 50 50 50 51 52 53 54 55 58 59
29 31 33 34 36 39 42 45 47 49 51 52 53 54 54 56 57 58 58 59 58 56 55 54 52 51 50 50 50 50 49 49 48 48 48 49 51 52 54 56 58 60 62
26 28 30 31 33 35 37 39 41 42 44 45 45 44 44 45 47 48 50 51 51 50 50 48 47 46 46 45 45 45 45 45 45 46 47 49 51 53 55 57 59 61 63
24 25 26 27 29 31 33 34 36 36 36 36 34 33 33 33 35 36 38 40 41 42 42 42 42 41 40 40 40 40 42 42 43 44 46 50 52 55 57 59 61 63 66
21 22 23 24 25 27 29 30 30 30 28 26 23 22 21 22 23 26 28 30 31 32 34 34 34 34 34 35 36 37 38 39 41 43 46 50 53 55 58 60 63 66 68
17 18 19 19 21 23 24 25 25 24 22 20 17 14 11 12 14 17 19 21 23 25 26 27 27 29 31 32 33 35 37 38 41 44 47 51 54 56 58 61 64 66 68
14 14 15 16 18 20 20 20 20 19 17 15 11 8 5 6 8 11 14 17 18 19 20 22 24 26 27 28 30 33 35 39 42 44 48 50 53 57 59 61 63 65 68
13 13 13 15 17 17 17 17 17 17 14 11 9 6 2 2 5 7 10 12 14 16 18 19 21 23 25 27 30 33 36 39 43 46 48 51 54 56 59 61 62 65 69
12 12 12 13 15 15 15 14 14 14 13 11 8 6 3 1 3 5 7 9 11 13 15 17 21 23 25 27 30 33 37 40 43 46 49 51 54 56 58 61 63 67 69
11 11 11 11 12 13 13 12 12 11 10 9 8 7 5 3 1 2 5 7 9 12 14 17 19 22 25 29 32 35 38 40 43 46 49 51 54 56 59 62 65 67 68
10 10 10 11 10 10 10 10 10 9 8 7 7 6 5 4 2 2 4 6 8 11 14 17 20 23 26 30 33 36 38 40 42 46 49 52 54 58 61 64 65 64 62
10 10 10 10 9 9 9 8 8 8 7 7 7 6 6 5 4 5 6 8 11 14 17 20 22 25 28 31 34 36 38 41 44 47 50 53 57 60 62 62 61 59 56
10 10 9 9 8 8 8 8 8 7 6 7 7 7 7 7 8 9 10 12 15 17 19 22 24 27 29 32 34 37 40 43 47 49 52 56 59 61 60 57 55 52 50
10 9 9 8 8 8 8 8 7 7 7 8 8 9 10 11 12 13 15 17 18 20 22 24 26 28 31 33 36 39 42 46 49 51 55 58 58 57 54 52 50 48 45
10 9 9 9 8 8 8 8 7 8 9 10 11 12 13 14 16 17 18 20 21 23 24 26 28 30 33 36 39 42 45 48 50 53 56 56 54 52 49 48 46 44 42
Wind_Direction
250 250 250 249 248 247 246 246 246 247 248 250 251 253 255 257 258 260 262 264 268 271 273 274 275 276 277 278 279 280 282 283 284 284 285 286 286 287 289 289 290 290 291
250 250 250 251 251 250 250 249 249 249 250 251 252 253 255 256 258 260 263 266 269 270 271 271 272 273 274 276 277 279 280 281 282 283 284 285 286 287 288 289 290 290 291
250 251 252 252 252 252 252 252 253 253 253 253 253 254 255 257 259 261 263 265 266 267 268 269 270 272 274 275 276 277 279 279 280 280 282 283 284 285 287 288 289 290 291
251 252 253 253 253 253 253 254 255 256 256 256 256 257 257 258 259 260 261 263 264 266 267 268 269 271 273 274 275 276 277 278 278 279 280 281 283 284 285 286 288 289 291
252 253 254 254 254 255 255 256 258 258 259 259 260 260 260 260 260 260 261 263 264 265 266 267 268 269 271 272 273 273 274 275 277 277 279 280 281 283 284 285 287 288 290
253 254 254 255 257 258 259 260 260 261 262 262 263 263 263 263 263 263 263 263 263 264 264 264 265 267 268 269 270 271 272 274 275 276 277 279 280 282 282 285 286 287 289
254 256 257 258 260 261 262 263 264 265 265 265 265 265 265 264 264 264 264 263 263 263 263 263 263 264 265 266 267 268 270 271 273 275 276 278 280 280 282 284 286 288 289
255 257 260 262 263 265 266 267 268 268 268 268 267 267 266 266 265 264 264 263 263 262 261 261 261 261 263 264 265 266 268 269 271 273 275 277 278 280 283 284 286 287 288
258 261 263 265 267 268 269 270 270 270 269 269 269 268 267 266 265 264 263 262 261 261 260 260 259 260 261 262 263 265 267 268 270 271 274 276 278 280 284 285 285 286 287
262 265 267 269 270 271 272 272 272 271 271 270 269 267 266 265 263 262 261 261 260 259 259 259 259 259 259 260 262 263 264 267 269 271 273 276 277 280 282 283 285 285 286
266 269 271 272 274 275 276 276 276 275 274 273 271 269 266 264 261 260 259 258 257 257 257 258 258 258 259 260 261 263 264 266 269 271 272 275 276 280 281 283 284 285 287
269 272 275 277 279 281 282 282 282 280 278 276 273 270 266 263 260 258 256 255 254 254 255 256 256 257 258 260 261 262 264 266 268 271 273 274 276 279 281 283 284 287 289
274 278 281 283 285 287 289 290 288 286 284 281 278 273 268 263 260 257 254 253 252 251 252 253 254 256 258 260 261 263 265 266 268 270 273 275 277 279 282 283 286 289 291
281 284 287 289 292 296 298 298 296 295 293 289 283 276 269 264 259 255 252 250 249 249 250 251 253 255 258 260 262 264 265 266 268 271 273 275 279 281 284 286 289 291 293
288 291 294 298 302 304 305 306 305 304 303 298 290 280 271 264 257 252 249 247 246 246 247 249 251 254 258 260 261 262 264 265 268 271 274 277 280 284 287 289 292 293 295
292 297 303 307 310 312 313 313 314 314 314 308 300 288 273 261 251 247 243 240 239 241 244 247 250 253 256 258 260 263 265 267 270 274 277 280 283 287 290 292 294 295 297
297 302 308 315 320 322 323 325 325 325 325 321 313 300 278 257 245 235 230 229 232 236 239 243 247 251 254 257 261 263 266 270 273 276 279 282 286 290 294 296 298 299 300
300 308 314 320 327 330 332 335 337 336 335 335 333 323 291 250 229 217 218 223 229 233 236 241 245 250 254 259 263 267 271 275 278 281 284 287 291 294 297 298 300 301 302
302 311 319 326 331 335 338 342 346 349 350 349 348 347 332 240 216 211 215 218 226 231 234 240 247 255 259 265 271 274 278 281 284 288 290 294 296 298 299 301 302 303 304
305 313 319 329 334 338 343 346 350 356 360 3 7 18 32 114 179 195 210 215 224 232 238 249 258 260 264 270 277 282 286 289 292 294 297 298 300 301 303 304 304 305 306
305 312 319 327 334 338 346 353 357 360 6 14 27 33 46 73 137 210 227 235 240 246 254 264 269 271 274 280 285 290 293 295 297 299 301 302 303 305 306 306 307 307 308
307 312 317 324 329 338 347 354 2 8 14 18 21 23 27 23 356 292 283 274 272 273 278 281 283 285 288 291 294 296 298 300 301 303 304 306 307 308 309 309 310 310 310
304 313 316 321 324 329 334 339 347 355 3 2 2 5 4 359 345 324 307 301 295 292 291 291 292 294 296 298 299 301 303 304 305 307 308 309 310 311 312 312 312 313 313
298 306 312 316 321 327 330 333 336 343 351 355 357 354 348 340 331 322 314 308 304 302 301 301 301 301 301 302 304 306 308 309 309 310 311 312 314 314 315 315 315 316 316
292 300 304 309 315 322 327 331 334 336 337 338 338 336 331 326 322 317 313 310 308 307 306 305 305 306 306 307 308 310 312 313 313 313 314 316 316 316 316 317 318 319 318
285 292 297 303 310 317 321 321 321 322 324 324 324 324 322 320 318 316 313 312 311 310 309 309 309 310 310 311 312 313 314 315 316 316 317 318 318 318 319 319 319 319 319
Height
5755 5757 5759 5761 5764 5766 5769 5771 5773 5775 5776 5777 5779 5780 5781 5782 5783 5783 5783 5784 5784 5785 5785 5785 5784 5784 5783 5783 5782 5782 5781 5780 5779 5778 5777 5776 5775 5773 5772 5770 5768 5766 5765
5747 5749 5751 5753 5756 5759 5761 5762 5764 5766 5768 5770 5771 5772 5773 5774 5774 5775 5775 5776 5777 5777 5776 5776 5776 5775 5775 5775 5774 5774 5773 5772 5771 5771 5769 5768 5768 5765 5763 5762 5760 5758 5756
5739 5741 5743 5746 5748 5750 5752 5754 5755 5757 5759 5760 5762 5763 5764 5765 5766 5767 5767 5767 5767 5767 5767 5767 5767 5766 5766 5766 5765 5765 5765 5764 5763 5762 5761 5760 5759 5757 5755 5753 5751 5749 5747
5731 5734 5736 5738 5740 5741 5743 5745 5746 5747 5748 5750 5751 5753 5754 5756 5757 5757 5757 5757 5757 5757 5757 5757 5757 5757 5757 5757 5756 5756 5755 5754 5753 5752 5752 5751 5749 5748 5747 5745 5742 5740 5738
5723 5726 5727 5729 5731 5732 5734 5735 5736 5737 5738 5739 5740 5741 5743 5744 5745 5745 5746 5746 5746 5746 5746 5747 5747 5747 5747 5747 5746 5746 5746 5745 5744 5743 5742 5741 5739 5738 5737 5735 5733 5730 5728
5716 5718 5719 5721 5722 5723 5724 5725 5726 5726 5727 5727 5728 5729 5730 5731 5732 5733 5733 5734 5734 5735 5735 5736 5736 5736 5736 5736 5736 5736 5735 5735 5734 5733 5732 5731 5729 5728 5726 5724 5722 5720 5717
5708 5710 5712 5713 5714 5715 5715 5715 5716 5715 5715 5715 5715 5715 5716 5716 5717 5718 5719 5720 5721 5722 5723 5723 5724 5724 5725 5725 5725 5725 5725 5724 5724 5723 5722 5720 5719 5717 5715 5713 5711 5709 5706
5701 5703 5704 5705 5705 5706 5705 5705 5705 5704 5702 5702 5701 5700 5700 5700 5701 5702 5703 5704 5706 5708 5709 5710 5711 5712 5712 5713 5713 5713 5713 5713 5713 5712 5711 5709 5708 5706 5704 5702 5700 5697 5695
5694 5695 5695 5696 5696 5696 5695 5694 5692 5690 5688 5687 5685 5684 5683 5683 5684 5684 5685 5687 5690 5692 5694 5696 5697 5698 5700 5700 5701 5701 5702 5702 5702 5701 5700 5699 5697 5695 5693 5691 5688 5686 5683
5686 5687 5687 5686 5686 5684 5683 5681 5679 5676 5673 5670 5668 5666 5664 5664 5664 5666 5668 5670 5673 5676 5678 5681 5683 5685 5687 5688 5689 5689 5690 5690 5690 5689 5688 5687 5685 5683 5681 5678 5675 5672 5670
5679 5678 5677 5676 5675 5673 5670 5667 5664 5660 5656 5652 5649 5646 5644 5643 5644 5646 5648 5652 5655 5659 5663 5666 5669 5671 5673 5675 5677 5678 5678 5679 5678 5678 5677 5676 5674 5672 5669 5666 5663 5659 5655
5670 5669 5668 5666 5664 5661 5657 5653 5648 5643 5638 5633 5629 5625 5623 5623 5623 5626 5630 5634 5638 5643 5648 5652 5655 5658 5661 5663 5665 5666 5667 5667 5668 5667 5665 5664 5661 5659 5656 5652 5649 5644 5640
5662 5660 5658 5656 5653 5649 5644 5638 5632 5626 5620 5614 5609 5605 5603 5603 5605 5608 5612 5617 5623 5629 5634 5639 5643 5647 5650 5652 5654 5655 5656 5657 5657 5656 5654 5652 5650 5646 5643 5639 5635 5630 5625
5654 5652 5649 5646 5642 5638 5632 5626 5619 5612 5604 5598 5592 5589 5587 5587 5589 5593 5598 5604 5611 5617 5623 5628 5633 5636 5640 5642 5644 5645 5646 5646 5645 5644 5643 5640 5638 5634 5630 5625 5620 5615 5609
5647 5644 5642 5638 5633 5628 5623 5616 5609 5601 5593 5586 5580 5576 5575 5576 5578 5582 5588 5594 5601 5607 5614 5619 5623 5627 5631 5633 5634 5635 5636 5635 5635 5633 5631 5629 5626 5622 5617 5612 5606 5600 5593
5640 5638 5635 5631 5626 5621 5615 5609 5602 5594 5586 5579 5574 5570 5569 5569 5572 5576 5581 5587 5594 5600 5606 5611 5616 5619 5622 5624 5625 5626 5626 5626 5625 5623 5621 5618 5614 5609 5604 5598 5591 5584 5576
5635 5632 5629 5625 5621 5615 5610 5603 5597 5590 5583 5577 5572 5569 5567 5567 5570 5573 5578 5584 5590 5595 5601 5605 5610 5613 5615 5617 5618 5618 5618 5616 5615 5613 5610 5606 5601 5596 5590 5583 5576 5567 5558
5630 5628 5624 5621 5617 5611 5606 5600 5594 5588 5583 5578 5574 5571 5569 5569 5570 5574 5578 5583 5587 5592 5597 5601 5604 5607 5609 5610 5610 5610 5609 5608 5605 5602 5598 5594 5589 5583 5576 5569 5561 5551 5542
5626 5624 5621 5617 5614 5609 5604 5599 5594 5589 5584 5580 5576 5574 5572 5572 5574 5576 5579 5583 5587 5591 5595 5598 5600 5602 5603 5604 5604 5603 5601 5598 5595 5591 5587 5581 5576 5569 5562 5555 5547 5537 5526
5623 5620 5618 5615 5611 5607 5603 5598 5594 5590 5586 5582 5579 5577 5576 5576 5577 5579 5582 5584 5587 5590 5593 5595 5596 5597 5597 5597 5596 5594 5592 5589 5584 5580 5575 5569 5562 5555 5547 5539 5531 5521 5510
5619 5617 5615 5612 5609 5606 5603 5599 5595 5592 5589 5586 5583 5581 5581 5581 5581 5582 5584 5585 5587 5589 5590 5592 5592 5592 5592 5591 5589 5586 5582 5578 5573 5568 5562 5556 5548 5540 5532 5523 5514 5504 5493
5616 5614 5612 5610 5608 5605 5602 5599 5596 5593 5591 5589 5587 5585 5584 5584 5584 5585 5585 5586 5587 5588 5588 5588 5588 5587 5585 5583 5580 5576 5572 5568 5563 5557 5550 5543 5535 5526 5517 5507 5497 5486 5476
5613 5611 5610 5608 5606 5604 5602 5599 5597 5595 5593 5591 5589 5587 5586 5586 5585 5585 5586 5586 5586 5585 5585 5583 5582 5580 5578 5575 5571 5567 5563 5557 5551 5545 5537 5529 5520 5511 5501 5490 5480 5471 5461
5610 5609 5607 5606 5604 5602 5600 5598 5597 5595 5593 5591 5590 5589 5588 5587 5586 5585 5585 5584 5583 5581 5580 5578 5576 5573 5570 5567 5562 5558 5552 5546 5539 5532 5524 5515 5505 5496 5485 5476 5466 5457 5449
5607 5606 5605 5603 5602 5600 5599 5597 5596 5594 5593 5591 5590 5589 5587 5586 5585 5583 5582 5580 5579 5577 5575 5572 5569 5566 5562 5558 5553 5547 5541 5534 5527 5519 5510 5501 5491 5481 5472 5463 5454 5446 5438
5604 5603 5602 5601 5600 5598 5597 5596 5594 5593 5592 5590 5589 5587 5585 5584 5582 5580 5578 5576 5574 5571 5568 5565 5562 5558 5554 5549 5543 5537 5530 5522 5515 5506 5497 5487 5478 5469 5461 5452 5444 5437 5429